Weather in Iranshahr

Iran     27°12′50″N   60°30′58″E
temp.,
°C
wind,
m/s
gust,
m/s
humid.,
%
clouds,
%
prec.,
mm/h
press.,
hPa
HPBL,
m
23 april, fri
fri2301:30+28ene46165 0.0 100971
04:30+26se23180 0.0 100919
07:30+27se01193 0.0 1011132
10:30+33s21130 0.0 1011820
13:30+37w4790 0.0 10073157
16:30+38w6781 0.0 10053297
19:30+34w45100 0.0 100564
22:30+31n22110 0.0 100813
24 april, sat
sat2401:30+26w46230 0.0 1008110
04:30+24s11240 0.0 100911
07:30+27e33210 0.0 1010180
10:30+33se11150 0.0 1010757
13:30+38w3380 0.0 10073159
16:30+38s2360 0.0 10042675
19:30+35w4483 0.0 100537
22:30+31ne3321100 0.0 101077
25 april, sun
sun2501:30+28s222521 0.0 100913
04:30+26w01265 0.0 101011
07:30+28w12170 0.0 1012152
10:30+34w34100 0.0 10111118
13:30+38wnw4380 0.0 10083070
16:30+39wnw4370 0.0 10053834
19:30+33sw7121414 0.0 1008234
22:30+31sse021866 0.0 101162
26 april, mon
mon2601:30+29ssw331816 0.0 101018
04:30+26nnw11215 0.0 101011
07:30+28ne11160 0.0 1011114
10:30+34w24104 0.0 1011988
13:30+38wnw5470 0.0 10073315
16:30+38wnw5472 0.0 10053410
19:30+35nnw45998 0.0 100544
22:30+32w8131293 0.0 1009490
27 april, tue
tue2701:30+28sw331527 0.0 100923
04:30+25w22175 0.0 100913
07:30+27e22143 0.0 1011135
10:30+34wsw1190 0.0 1010763
13:30+38w4460 0.0 10073693
16:30+39wnw5450 0.0 10043676
19:30+35nw56713 0.0 100564
22:30+31wsw813146 0.0 1008306